Regional Weather Roundup
Issued by NWS

Home | Current Version | Previous Version | Graphics & Text | Print | Product List | Glossary On
Versions: 1 2 3 4 5 6 7 8 9 10 11 12 13 14 15 16 17 18 19 20 21 22 23 24 25 26 27 28 29 30 31 32 33 34 35 36 37 38 39 40 41 42 43 44 45 46 47 48 49 50
000
ASUS43 KDMX 260607
RWRIA

WEATHER ROUNDUP FOR IOWA
NATIONAL WEATHER SERVICE DES MOINES IA
1200 AM CST MON JAN 26 2015

NOTE: "FAIR" INDICATES FEW OR NO CLOUDS BELOW 12,000 FEET WITH NO
SIGNIFICANT WEATHER AND/OR OBSTRUCTIONS TO VISIBILITY.

* - THESE STATIONS ARE NOT NWS STATIONS...THUS NOT UNDER NWS
QUALITY CONTROL.  THEY ALSO DO NOT REPORT WEATHER SUCH
AS PRECIPITATION OR FOG.

IAZ001>003-012>014-020>022-031>034-043>046-260700-
   NORTHWEST IOWA

CITY           SKY/WX    TMP DP  RH WIND       PRES   REMARKS
CARROLL *      CLOUDY    30  30 100 SW7       30.04S WCI  23
CHEROKEE *     CLOUDY    32  31  99 S5        30.00F WCI  27
DENISON *      CLOUDY    32  32 100 CALM      30.02S
LE MARS *      CLEAR     30  30 100 S7        30.00F WCI  23
ORANGE CITY *  CLEAR     32  30  93 SW9       29.97F WCI  24
SHELDON *      CLEAR     32  32 100 SW8       29.95F WCI  25
SIOUX CITY     PTCLDY    30  28  92 S3        30.02F
6HR MIN TEMP:  30; 6HR MAX TEMP:  36;

SPENCER        CLOUDY    33  30  88 SW10      29.96F WCI  25
6HR MIN TEMP:  32; 6HR MAX TEMP:  33;

STORM LAKE *   CLOUDY    30  30 100 S8        30.00F WCI  23
$$

IAZ055>058-069>071-079>083-090>094-260700-
   SOUTHWEST IOWA

CITY           SKY/WX    TMP DP  RH WIND       PRES   REMARKS
ATLANTIC *     CLOUDY    32  30  93 CALM      30.05F
AUDUBON *      MOCLDY    30  27  86 S3        30.05S
CLARINDA *     CLOUDY    30  28  93 CALM      30.10S
COUNCIL BLFS * CLEAR     30  30 100 S7        30.04R WCI  23
CRESTON *      CLOUDY    30  28  93 CALM      30.06S
HARLAN  *      CLOUDY    32  32 100 S6        30.08S WCI  26
LAMONI         CLOUDY    31  25  78 CALM      30.07S
6HR MIN TEMP:  30; 6HR MAX TEMP:  33;

RED OAK *      CLOUDY    30  28  93 S3        30.07S
SHENANDOAH *   CLOUDY    30  28  93 CALM      30.09S
$$

IAZ047>049-059>061-072>074-084-260700-
   CENTRAL IOWA

CITY           SKY/WX    TMP DP  RH WIND       PRES   REMARKS
AMES           CLOUDY    29  23  78 CALM      30.04F
6HR MIN TEMP:  29; 6HR MAX TEMP:  32;

ANKENY *       CLOUDY    30  25  80 CALM      30.06S
CHARITON *     CLOUDY    32  27  80 W6        30.06S WCI  26
DES MOINES     CLOUDY    32  24  72 W3        30.06F
6HR MIN TEMP:  32; 6HR MAX TEMP:  34;

GRINNELL*      CLOUDY    30  27  86 CALM      30.04F
KNOXVILLE *    CLOUDY    30  25  80 NW5       30.05S WCI  25
MARSHALLTOWN   CLOUDY    29  26  89 CALM      30.02F
6HR MIN TEMP:  29; 6HR MAX TEMP:  32;

PELLA *        MOCLDY    31  27  84 CALM      30.07S
PERRY *          N/A     31  29  89 SW3       30.04F
$$

IAZ004>006-015-016-023>025-035-036-260700-
   NORTH CENTRAL IOWA

CITY           SKY/WX    TMP DP  RH WIND       PRES   REMARKS
ALGONA *       CLOUDY    30  27  86 S10       30.00F WCI  21
CLARION *      MOCLDY    28  27  93 SW3       30.02S
ESTHERVILLE    CLOUDY    29  27  92 S12       29.95F WCI  19
6HR MIN TEMP:  27; 6HR MAX TEMP:  29;

FORT DODGE *   CLOUDY    28  23  80 S6        30.02F WCI  22
MASON CITY     CLOUDY    26  22  84 CALM      30.01F
6HR MIN TEMP:  24; 6HR MAX TEMP:  27;

FOREST CITY *  PTCLDY    27  23  86 S6        29.98F WCI  20
IOWA FALLS *   CLOUDY    28  23  80 CALM      30.03S
$$

IAZ007>011-017>019-026>030-037>042-050>054-066-260700-
   NORTHEAST IOWA

CITY           SKY/WX    TMP DP  RH WIND       PRES   REMARKS
CEDAR RAPIDS   CLOUDY    19  16  88 W3        30.06R
6HR MIN TEMP:  18; 6HR MAX TEMP:  27;

CHARLES CITY * CLOUDY    27  25  93 W9        30.02F WCI  17
CLINTON *      CLOUDY    16   9  73 N7        30.07F WCI   6
DECORAH *      CLOUDY    23  16  74 S6        30.01S WCI  16
DUBUQUE        MOCLDY    16  10  77 NE5       30.03F WCI   9
6HR MIN TEMP:  15; 6HR MAX TEMP:  21;

MONTICELLO *   PTCLDY    16  16 100 W3        30.05S
OELWEIN *      CLOUDY    23  18  80 S9        30.03F WCI  13
WATERLOO       CLOUDY    28  24  85 CALM      30.03F
6HR MIN TEMP:  28; 6HR MAX TEMP:  30;

$$

IAZ064-065-067-068-078-260700-
   EAST CENTRAL IOWA

CITY           SKY/WX    TMP DP  RH WIND       PRES   REMARKS
DAVENPORT      CLOUDY    16  10  77 N5        30.05F WCI   9
6HR MIN TEMP:  13; 6HR MAX TEMP:  23;

IOWA CITY      MOCLDY    18  16  92 CALM      30.09R
6HR MIN TEMP:  18; 6HR MAX TEMP:  27;

MT. PLEASANT * CLOUDY    23  19  84 N3        30.07S
MUSCATINE *    CLEAR     21  16  79 CALM      30.08S
QUAD CITIES    MOCLDY    20  12  71 VRB3      30.05S
6HR MIN TEMP:  20; 6HR MAX TEMP:  27;

$$

IAZ062-063-075>077-085>089-095>099-260700-
   SOUTHEAST IOWA

CITY           SKY/WX    TMP DP  RH WIND       PRES   REMARKS
BURLINGTON     PTCLDY    23  18  81 N5        30.05F WCI  17
6HR MIN TEMP:  23; 6HR MAX TEMP:  29;

FAIRFIELD *    CLOUDY    27  18  69 NE3       30.07S
FORT MADISON * CLEAR     25  21  86 N3        30.07F
KEOKUK *       CLOUDY    27  21  80 N5        30.06F WCI  21
OSKALOOSA *    CLOUDY    29  26  90 CALM      30.06S
CENTERVILLE *  CLOUDY    32  30  93 W5        30.07F WCI  27
OTTUMWA        CLOUDY    29  25  85 CALM      30.05F
6HR MIN TEMP:  28; 6HR MAX TEMP:  29;

WASHINGTON *   CLOUDY    21  21 100 CALM      30.07R
$$

ABBREVIATIONS USED IN REMARKS
   TC - TEMPERATURES IN CELSIUS
  WCI - WIND CHILL INDEX
   HX - HEAT INDEX
  VSB - VISIBILITY
$$




USA.gov is the U.S. government's official web portal to all federal, state and local government web resources and services.